This demonstration page uses our WeatherBlox Daily Observations layout. Learn more.

Hourly Observations for February 26, 2019

Temp ( °F °C ) Dew Point ( °F °C ) Humidity (%) Winds ( mph kmh ) Pressure ( in mb ) Visibility ( mi km ) Precip ( " mm )
12:54 am 00:54 Cloudy 5 -15 -1 -18.3 76 76 NNE 18 30 30.51 1033 10 16.0934 0 0
1:54 am 01:54 Cloudy 5 -15 -1 -18.3 76 76 NNE 16 26 30.5 1033 10 16.0934 0 0
2:54 am 02:54 Cloudy 4 -15.6 -2 -18.9 76 76 NNE 17 28 30.49 1032 10 16.0934 0 0
3:52 am 03:52 Partly Cloudy 3 -16 -2 -19 78 78 NNE 15 24 30.53 1034 10 16.0934 0 0
3:54 am 03:54 Partly Cloudy 3 -16.1 -2 -18.9 79 79 NNE 15 24 30.46 1032 10 16.0934 0 0
4:54 am 04:54 Clear 3 -16.1 -3 -19.4 76 76 NNE 12 19 30.46 1032 10 16.0934 0 0
5:54 am 05:54 Clear 2 -16.7 -3 -19.4 80 80 NNE 13 20 30.47 1032 10 16.0934 0 0
6:54 am 06:54 Clear 2 -16.7 -4 -20 76 76 NNE 13 20 30.46 1032 10 16.0934 0 0
7:54 am 07:54 Sunny 2 -16.7 -4 -20 76 76 NNE 14 22 30.46 1031 10 16.0934 0 0
8:54 am 08:54 Sunny 4 -15.6 -3 -19.4 73 73 NNE 14 22 30.47 1032 10 16.0934 0 0
9:54 am 09:54 Sunny 6 -14.4 -2 -18.9 69 69 ENE 15 24 30.42 1030 10 16.0934 0 0
10:54 am 10:54 Sunny 8 -13.3 0 -17.8 69 69 NNE 13 20 30.44 1031 10 16.0934 0 0
11:54 am 11:54 Sunny 11 -11.7 1 -17.2 64 64 NE 10 17 30.42 1030 10 16.0934 0 0
12:54 pm 12:54 Sunny 13 -10.6 3 -16.1 64 64 NE 8 13 30.39 1029 10 16.0934 0 0
1:54 pm 13:54 Cloudy 14 -10 4 -15.6 64 64 NNE 10 17 30.37 1028 10 16.0934 0 0
2:23 pm 14:23 Cloudy 14 -10 5 -15 67 67 NNE 12 19 30.38 1029 10 16.0934 0 0
2:54 pm 14:54 Cloudy 15 -9.4 5 -15 64 64 ENE 10 17 30.34 1027 10 16.0934 0 0
3:54 pm 15:54 Cloudy 15 -9.4 6 -14.4 67 67 ENE 8 13 30.33 1027 10 16.0934 0 0
4:54 pm 16:54 Cloudy 15 -9.4 6 -14.4 67 67 NNE 7 11 30.34 1027 10 16.0934 0 0
5:54 pm 17:54 Cloudy 15 -9.4 7 -13.9 70 70 NNE 3 6 30.34 1027 10 16.0934 0 0
6:54 pm 18:54 Cloudy 15 -9.4 8 -13.3 74 74 NNE 8 13 30.32 1027 10 16.0934 0 0
7:54 pm 19:54 Cloudy 15 -9.4 8 -13.3 74 74 N 9 15 30.34 1027 10 16.0934 0 0
8:54 pm 20:54 Cloudy 14 -10 9 -12.8 80 80 N 10 17 30.33 1027 10 16.0934 0 0
9:15 pm 21:15 Cloudy 14 -10 9 -12.8 80 80 N 12 19 30.37 1029 10 16.0934 0 0
9:54 pm 21:54 Cloudy 14 -10 9 -12.8 80 80 N 13 20 30.35 1028 8 12.87472 0 0
10:54 pm 22:54 Cloudy with Light Snow 13 -10.6 8 -13.3 81 81 N 13 20 30.35 1028 4 6.43736 0 0.0254
11:22 pm 23:22 Cloudy with Light Snow 12 -11.1 7 -13.9 80 80 N 10 17 30.4 1029 5 8.0467 0 0.0254
11:54 pm 23:54 Cloudy with Light Snow 12 -11.1 7 -13.9 80 80 N 14 22 30.36 1028 4 6.43736 0 0.0254

Powered by AerisWeather